TimeCST,TemperatureF,Dew PointF,Humidity,Sea Level PressureIn,VisibilityMPH,Wind Direction,Wind SpeedMPH,Gust SpeedMPH,PrecipitationIn,Events,Conditions,WindDirDegrees,DateUTC
12:43 AM,78.8,73.4,83,29.95,8.0,Calm,Calm,-,N/A,,Clear,0,2012-11-13 06:43:00
1:45 AM,78.8,73.4,83,29.93,7.0,Calm,Calm,-,N/A,,Clear,0,2012-11-13 07:45:00
2:43 AM,77.0,73.4,89,29.95,7.0,Calm,Calm,-,N/A,,Clear,0,2012-11-13 08:43:00
2:45 AM,77,75,93,29.90,6,South,2.2,,,,Clear,170,2012-11-13 08:45:00
3:42 AM,77.0,73.4,89,29.91,7.0,Calm,Calm,-,N/A,,Clear,0,2012-11-13 09:42:00
4:43 AM,77.0,73.4,89,29.90,7.0,Calm,Calm,-,N/A,,Clear,0,2012-11-13 10:43:00
5:50 AM,76,73,89,29.90,6,SSE,2.2,,,,Clear,150,2012-11-13 11:50:00
5:50 AM,77.0,73.4,89,29.86,7.0,Calm,Calm,-,N/A,,Clear,0,2012-11-13 11:50:00
6:43 AM,77.0,73.4,89,29.91,6.0,Calm,Calm,-,N/A,,Haze,0,2012-11-13 12:43:00
7:45 AM,78.8,73.4,83,29.92,5.0,Calm,Calm,-,N/A,,Clear,0,2012-11-13 13:45:00
8:46 AM,82.4,73.4,74,29.95,5.0,Calm,Calm,-,N/A,,Clear,0,2012-11-13 14:46:00
8:50 AM,82,75,74,29.94,12,NNE,2.2,,,,Clear,20,2012-11-13 14:50:00
9:42 AM,84.2,73.4,70,29.93,6.0,Calm,Calm,-,N/A,,Clear,0,2012-11-13 15:42:00
10:45 AM,87.8,73.4,62,29.92,6.0,WSW,4.6,-,N/A,,Clear,250,2012-11-13 16:45:00
11:44 AM,89.6,75.2,62,29.90,6.0,West,6.9,-,N/A,,Clear,260,2012-11-13 17:44:00
11:50 AM,87,76,62,29.90,12,West,6.7,,,,,280,2012-11-13 17:50:00
12:42 PM,91.4,75.2,59,29.87,6.0,West,11.5,-,N/A,,Clear,260,2012-11-13 18:42:00
1:42 PM,89.6,75.2,62,29.84,8.0,WSW,11.5,-,N/A,,Clear,250,2012-11-13 19:42:00
2:45 PM,89,78,63,29.81,12,West,8.9,,,,Scattered Clouds,270,2012-11-13 20:45:00
2:47 PM,89.6,73.4,59,29.81,8.0,WSW,11.5,-,N/A,,Clear,250,2012-11-13 20:47:00
3:43 PM,91.4,75.2,59,29.79,8.0,WSW,11.5,-,N/A,,Clear,250,2012-11-13 21:43:00
4:43 PM,89.6,75.2,62,29.80,8.0,WSW,10.4,-,N/A,,Clear,250,2012-11-13 22:43:00
5:45 PM,86.0,78.8,79,29.81,8.0,WSW,8.1,-,N/A,,Clear,250,2012-11-13 23:45:00
5:50 PM,85,77,71,29.81,12,WNW,4.5,,,,Scattered Clouds,290,2012-11-13 23:50:00
6:47 PM,86.0,78.8,79,29.82,8.0,Calm,Calm,-,N/A,,Clear,0,2012-11-14 00:47:00
7:42 PM,84.2,77.0,79,29.84,8.0,Calm,Calm,-,N/A,,Clear,0,2012-11-14 01:42:00
8:42 PM,84.2,77.0,79,29.87,8.0,Calm,Calm,-,N/A,,Clear,0,2012-11-14 02:42:00
8:50 PM,81,77,83,29.88,6,SW,4.5,,,,Scattered Clouds,220,2012-11-14 02:50:00
9:42 PM,82.4,77.0,84,29.88,8.0,Calm,Calm,-,N/A,,Clear,0,2012-11-14 03:42:00
10:45 PM,80.6,77.0,89,29.90,8.0,Calm,Calm,-,N/A,,Clear,0,2012-11-14 04:45:00
11:42 PM,80.6,77.0,89,29.93,8.0,Calm,Calm,-,N/A,,Clear,0,2012-11-14 05:42:00
11:50 PM,80,77,86,29.90,6,NE,4.5,,,,Scattered Clouds,40,2012-11-14 05:50:00